Regional Weather Roundup
Issued by NWS Little Rock, AR

Home | Current Version | Previous Version | Text Only | Print | Product List | Glossary Off
Versions: 1 2 3 4 5 6 7 8 9 10 11 12 13 14 15 16 17 18 19 20 21 22 23 24 25 26 27

000
ASUS44 KLZK 232305
RWRLZK

WEATHER ROUNDUP FOR ARKANSAS
NATIONAL WEATHER SERVICE LITTLE ROCK AR
600 PM CDT THU OCT 23 2014

NOTE: "FAIR" INDICATES FEW OR NO CLOUDS BELOW 12,000 FEET WITH NO
SIGNIFICANT WEATHER AND/OR OBSTRUCTIONS TO VISIBILITY.

ARZ001-003-010-029-240000-
NORTHWEST ARKANSAS

CITY           SKY/WX    TMP DP  RH WIND       PRES   REMARKS
FAYETTEVILLE   CLOUDY    62  54  74 SE3       30.11F
FORT SMITH     CLOUDY    66  51  58 E5        30.10F
HARRISON       CLOUDY    61  53  75 S7        30.12F
BENTONVILLE    CLOUDY    61  54  77 S3        30.11F
ROGERS         CLOUDY    58  55  90 E5        30.12F
SILOAM SPGS    CLOUDY    61  54  77 SE3       30.12S
HIGHFILL       CLOUDY    60  56  86 S5        30.10F
SPRINGDALE     CLOUDY    61  55  82 SE5       30.13F
$$

ARZ004-005-016-240000-
NORTH CENTRAL ARKANSAS

CITY           SKY/WX    TMP DP  RH WIND       PRES   REMARKS
BATESVILLE     CLOUDY    55  52  88 CALM      30.15S
FLIPPIN        CLOUDY    59  46  63 E3        30.13F
MTN HOME       CLOUDY    58  50  75 SE3       30.12F
$$

ARZ040-041-240000-
WEST CENTRAL ARKANSAS

CITY           SKY/WX    TMP DP  RH WIND       PRES   REMARKS
MENA           CLOUDY    68  55  64 CALM      30.11F
MOUNT IDA      PTCLDY    63  54  72 CALM      30.10S
$$

ARZ009-017-025-026-028-240000-
NORTHEAST ARKANSAS

CITY           SKY/WX    TMP DP  RH WIND       PRES   REMARKS
CORNING        FAIR      57  46  67 W5        30.16S
JONESBORO      CLOUDY    57  49  74 N5        30.14F
NEWPORT        LGT RAIN  57  47  69 CALM      30.17R
WALNUT RIDGE   CLOUDY    55  45  67 CALM      30.15S
BLYTHEVILLE    CLOUDY    58  46  64 NW6       30.15S
$$

ARZ022-023-033-042-044-240000-
CENTRAL ARKANSAS

CITY           SKY/WX    TMP DP  RH WIND       PRES   REMARKS
LITTLE ROCK    MOCLDY    63  46  54 E5        30.14S
N LITTLE ROCK  MOCLDY    59  51  75 N5        30.14S
JACKSONVILLE   CLOUDY    60  49  67 N2        30.14F
SEARCY         CLOUDY    59  49  69 N3        30.16S
HOT SPRINGS    MOCLDY    66  46  48 CALM      30.12F
RUSSELLVILLE   CLOUDY    62  51  67 CALM      30.12S
$$

ARZ036-240000-
EAST ARKANSAS

CITY           SKY/WX    TMP DP  RH WIND       PRES   REMARKS
WEST MEMPHIS   CLOUDY    58  46  64 N5        30.12F
$$

ARZ050-053-066-070-073-240000-
SOUTHWEST ARKANSAS

CITY           SKY/WX    TMP DP  RH WIND       PRES   REMARKS
ARKADELPHIA    FAIR      64  54  70 CALM      30.12F
CAMDEN         CLEAR     64  48  55 CALM      30.12F
TEXARKANA      MOCLDY    64  50  60 SE3       30.11S
EL DORADO      CLEAR     62  49  62 NE6       30.12F
DE QUEEN       PTCLDY    66  53  63 S3        30.09S
$$

ARZ056-057-069-240000-
SOUTHEAST ARKANSAS

CITY           SKY/WX    TMP DP  RH WIND       PRES   REMARKS
PINE BLUFF     PTCLDY    61  45  55 N5        30.13S
STUTTGART      MOCLDY    61  46  59 NE7       30.14S
MONTICELLO     PTCLDY    61  49  64 CALM      30.13S

$$





USA.gov is the U.S. government's official web portal to all federal, state and local government web resources and services.